Theta_e
324 323 323 322 322 321 320 320 320 319 319 318 318 318 317 317 317 317 317 317 316 316 315 316 316 315 314 313 312 312 312 313 313 314 314 314 314 313 313 309 308 311 313 313 314 315 316 317 317 317 317 318
324 323 322 322 321 321 320 320 319 319 318 318 317 317 316 316 316 316 316 316 316 315 315 315 315 314 313 312 312 312 312 312 312 312 313 313 312 312 310 306 305 309 310 311 312 313 315 315 316 317 317 317
323 323 322 321 321 320 320 319 319 318 318 317 317 316 316 316 315 315 315 315 315 314 314 314 314 313 312 312 311 311 311 311 311 311 311 311 311 310 307 302 301 304 307 309 310 312 313 314 315 315 316 316
323 323 322 321 321 320 320 319 318 318 317 316 316 315 315 315 315 315 314 314 314 313 314 314 314 312 311 311 311 310 310 310 310 310 310 310 310 307 301 296 295 298 303 306 308 310 311 311 312 313 313 313
323 323 322 321 321 320 320 319 318 318 317 316 315 315 315 314 314 314 314 313 313 313 313 313 313 312 311 310 310 309 309 309 309 309 309 309 307 300 295 293 293 295 299 303 306 308 308 309 309 309 310 310
323 323 322 321 320 320 319 318 318 317 317 316 315 315 314 314 314 313 313 313 313 313 312 312 312 311 310 310 309 309 308 308 308 308 308 306 300 294 293 292 292 293 296 299 302 304 305 307 308 307 308 309
322 322 321 320 319 319 319 318 317 317 316 316 315 315 314 313 313 312 312 312 312 312 311 311 311 310 309 309 309 308 308 307 307 306 303 299 294 292 293 292 292 292 294 297 299 301 303 305 305 305 307 309
322 321 320 319 319 318 317 317 316 316 316 315 315 314 313 313 312 312 311 311 311 311 311 310 310 309 309 309 309 308 307 306 306 304 300 296 293 292 291 291 292 291 293 296 297 300 303 303 302 303 306 308
321 320 320 319 318 317 317 317 316 316 315 315 314 313 313 312 311 311 310 310 310 310 310 310 309 307 308 309 308 308 307 306 306 304 301 297 293 291 291 291 291 291 293 294 298 301 301 302 302 303 306 307
320 319 319 318 317 317 316 316 315 315 314 314 313 313 312 311 310 310 310 310 310 310 309 309 308 306 306 308 308 307 306 306 306 303 301 297 293 291 290 290 290 291 291 293 296 298 298 301 303 304 305 306
319 318 318 318 317 316 316 315 315 314 314 313 313 312 311 310 310 309 309 310 309 309 309 308 308 307 306 307 307 307 306 306 306 303 299 296 292 291 290 290 290 290 291 291 292 294 295 298 302 304 304 306
317 317 317 317 316 316 315 315 314 314 313 313 312 311 311 310 310 309 309 309 309 308 308 307 307 307 306 306 306 307 306 305 305 302 298 295 292 291 290 290 290 290 290 290 290 291 292 295 299 301 303 305
316 316 316 315 315 315 314 314 313 313 313 312 312 311 310 310 309 309 308 308 308 308 307 306 305 305 305 305 305 305 305 305 303 300 297 294 292 291 290 291 291 290 290 290 290 290 290 292 294 296 299 303
316 315 315 314 314 314 313 313 313 313 312 311 311 310 310 310 309 308 308 308 308 307 306 304 303 302 302 303 304 304 302 303 302 298 295 293 292 291 291 292 291 291 291 290 289 290 290 290 291 292 294 298
315 315 314 314 314 313 313 312 312 312 311 311 310 310 309 309 308 308 308 308 307 306 304 301 301 299 298 300 301 301 301 302 302 296 293 292 291 292 292 292 290 290 292 291 290 290 290 290 290 291 291 292
314 314 314 313 313 312 312 311 311 310 310 310 309 309 309 308 308 307 307 307 307 305 302 299 299 296 296 299 299 299 300 301 299 293 291 290 290 290 290 291 290 290 291 292 292 290 290 290 290 290 290 290
313 313 313 312 312 311 311 310 309 309 309 309 308 308 307 307 306 306 306 306 305 304 300 297 297 294 293 296 296 297 299 298 295 291 290 290 289 289 290 291 291 290 291 292 291 290 290 290 291 291 290 290
312 312 312 311 311 310 309 309 308 308 308 307 307 306 306 305 305 305 304 303 302 300 298 296 296 292 291 292 292 294 295 294 292 291 291 290 290 291 290 291 292 291 292 292 291 291 290 290 291 291 291 291
311 310 310 309 309 308 307 307 307 306 306 305 305 304 304 303 302 301 300 299 298 297 296 296 294 292 290 290 290 291 291 291 291 291 291 291 291 292 291 292 292 291 292 292 292 291 291 291 291 291 291 291
309 308 308 307 306 306 305 305 304 304 303 302 302 301 300 300 298 297 295 294 293 293 294 293 292 291 291 290 289 290 290 290 291 291 291 291 291 291 292 292 292 292 292 292 292 291 291 291 291 290 291 291
307 306 306 305 304 304 303 302 301 300 299 298 297 296 295 294 293 292 291 291 290 291 291 291 291 290 290 290 289 289 289 290 291 291 291 291 291 291 291 292 292 292 292 292 291 291 291 291 291 291 291 291
305 305 304 303 301 301 300 298 297 295 294 293 292 291 291 290 290 290 290 290 289 290 290 290 290 290 290 289 289 289 289 290 290 290 290 291 292 291 291 291 292 292 292 291 291 291 291 291 291 291 291 291
303 303 301 299 298 296 295 294 293 292 292 291 290 289 289 289 289 289 289 289 289 289 289 290 289 290 289 289 289 289 290 290 290 290 290 291 291 291 290 290 291 291 291 291 291 291 291 291 291 291 290 290
300 299 297 295 294 292 290 290 290 290 289 288 288 288 288 289 289 288 289 289 289 289 289 289 289 289 289 289 289 289 289 290 290 290 290 290 290 290 290 290 290 290 290 290 291 291 291 291 291 291 290 290
297 296 294 292 290 288 287 286 287 286 286 286 286 287 287 287 288 288 288 288 288 288 288 288 288 288 289 289 289 289 289 289 289 289 289 289 289 289 290 290 290 289 289 290 291 291 292 292 292 291 290 290
292 291 290 289 287 286 285 284 284 283 283 284 284 285 286 286 286 286 287 287 287 287 288 287 287 287 288 288 288 288 288 288 288 288 288 288 289 289 289 289 290 289 289 290 291 291 291 291 292 292 291 290
288 288 287 286 285 284 283 282 281 281 281 282 283 283 284 284 284 285 285 285 285 286 286 286 286 286 286 287 287 287 287 287 287 287 287 287 287 288 288 289 289 288 288 289 290 290 290 291 291 291 292 291
286 286 286 285 283 282 281 281 280 280 280 280 281 281 281 282 282 282 282 282 283 283 284 284 284 284 285 285 285 285 285 285 285 286 286 286 286 286 287 288 288 288 288 288 289 290 290 291 290 290 292 292
283 284 284 284 283 282 281 280 280 279 279 278 278 278 278 279 279 280 280 280 280 280 281 281 282 282 282 283 283 283 283 283 283 283 284 285 285 285 286 287 287 287 287 287 287 288 289 290 290 290 291 290
282 282 282 282 281 281 280 279 278 278 277 277 276 276 276 277 278 278 278 278 278 278 278 279 279 280 280 280 280 280 280 280 280 281 282 282 283 284 284 285 286 287 287 287 287 287 287 288 289 289 289 289
281 280 280 279 279 279 279 278 277 276 276 276 275 275 275 275 276 277 276 277 277 277 277 277 277 277 278 278 278 278 278 278 278 278 279 280 280 281 282 283 285 286 287 287 287 287 286 286 286 286 287 287
Wind_Speed
15 14 14 13 14 14 14 13 12 12 10 9 8 5 6 8 8 8 9 9 9 8 7 5 5 6 7 6 6 8 7 6 6 6 6 6 5 5 5 4 4 6 7 5 5 5 5 6 6 6 6 6
15 15 14 14 15 15 15 14 13 12 10 9 9 6 6 6 6 7 7 7 8 8 7 6 4 5 7 6 7 7 6 6 6 6 6 5 5 5 5 3 4 6 6 5 5 5 6 6 5 6 6 5
16 16 15 15 15 15 15 14 13 12 11 10 10 8 6 5 5 6 5 4 6 6 7 6 5 5 6 7 7 6 6 6 6 6 6 5 5 5 4 3 4 5 6 5 5 5 5 5 5 5 4 4
16 16 16 15 14 13 13 13 12 10 10 9 9 7 6 5 4 5 4 3 3 4 5 5 6 6 6 6 6 5 5 6 6 6 6 5 4 3 3 4 3 3 5 5 6 5 5 5 4 4 3 4
16 15 14 14 13 11 11 11 10 8 8 9 7 6 5 5 4 4 4 3 3 3 3 4 7 6 5 5 5 5 5 5 5 5 5 4 3 2 4 6 4 1 3 5 6 6 6 4 3 3 3 2
15 14 14 14 14 12 12 12 10 7 6 8 7 6 6 5 5 5 5 5 4 4 3 3 5 5 4 4 4 4 5 6 5 6 5 3 3 5 5 6 4 1 2 4 5 6 6 3 2 3 3 2
16 16 15 15 15 14 13 13 11 8 6 8 9 9 9 7 6 6 6 5 5 5 5 4 4 4 4 5 6 5 5 5 6 4 2 4 6 6 5 5 4 1 1 3 4 4 4 3 3 4 3 3
18 18 17 16 16 15 14 13 11 9 8 8 9 8 9 9 8 7 6 5 5 5 6 6 6 5 5 5 6 6 5 5 5 3 5 7 7 7 5 5 4 2 1 2 2 3 3 3 5 5 5 4
18 18 17 16 16 15 14 14 13 12 10 8 8 8 8 9 9 7 7 7 7 6 6 7 7 6 7 6 6 6 5 5 6 6 8 8 7 7 5 4 4 3 1 2 2 3 3 4 4 5 6 7
18 17 17 16 16 15 15 14 13 12 10 8 7 7 7 7 7 7 7 8 7 7 7 7 6 6 7 7 7 6 5 7 7 7 7 8 8 6 5 5 4 3 1 2 3 4 5 5 5 5 6 8
17 17 17 16 15 15 15 14 12 11 8 8 7 7 6 5 6 7 7 7 6 6 6 6 5 5 7 8 8 7 6 8 9 8 8 8 8 6 6 5 4 3 1 2 3 4 6 6 6 6 7 9
17 17 16 15 15 15 15 13 12 10 8 7 7 6 5 5 5 6 6 6 5 5 5 5 5 5 6 8 10 10 9 9 9 8 9 8 7 6 6 5 4 3 2 2 3 4 6 7 7 8 9 10
16 16 15 15 15 15 14 13 11 9 8 7 7 6 5 5 5 5 5 5 5 5 5 5 6 6 7 8 10 10 9 9 8 8 9 7 6 6 6 5 5 4 3 2 3 4 5 6 7 9 10 11
16 15 15 15 15 14 13 12 11 9 8 7 7 6 5 5 5 5 6 6 6 6 6 6 6 7 8 8 9 8 7 10 9 7 7 6 5 5 5 4 5 5 4 4 4 4 5 6 7 8 10 12
16 15 15 15 15 14 13 12 10 9 9 7 6 6 5 5 5 5 6 6 6 6 6 7 6 7 7 7 9 8 7 11 10 7 6 5 4 5 4 4 6 5 4 5 5 5 6 6 7 8 9 11
16 16 15 15 14 13 12 11 10 9 8 7 6 5 5 5 5 5 5 6 6 6 6 7 6 7 6 5 7 9 8 10 10 8 7 7 6 6 6 6 8 7 6 6 6 7 7 7 7 9 10 11
16 15 15 14 14 13 11 10 9 8 6 5 5 4 3 3 4 4 5 5 6 6 7 7 7 6 5 4 6 8 8 9 8 7 6 6 7 7 7 7 8 9 8 7 8 9 8 8 8 8 10 10
15 15 14 14 12 11 10 9 7 6 5 4 3 3 2 2 3 3 4 5 7 7 7 7 6 4 4 4 5 6 6 6 5 5 5 5 6 6 7 7 7 8 7 7 8 8 9 9 8 8 10 9
14 13 13 12 11 10 9 7 6 5 4 3 2 1 0 1 2 3 4 5 6 6 6 6 5 4 3 4 4 4 5 5 4 4 4 4 5 6 7 7 7 8 8 7 8 7 8 8 8 10 10 10
12 11 11 10 9 9 8 7 6 5 4 3 2 1 1 1 2 2 3 3 4 4 4 4 4 4 4 4 3 3 5 4 4 4 4 5 6 6 7 7 8 8 8 8 8 8 9 10 10 11 10 11
10 10 10 9 9 8 8 8 7 6 5 5 5 4 4 3 3 3 4 4 4 4 4 3 3 4 4 4 3 3 4 4 4 4 5 6 7 7 7 8 8 9 8 9 9 9 11 11 11 11 10 11
8 8 9 9 10 9 9 9 10 9 8 9 8 8 8 7 7 6 6 6 5 5 5 4 4 4 5 5 4 3 4 4 6 6 6 6 7 8 8 7 8 9 9 10 11 11 12 11 11 12 12 12
8 9 10 12 12 13 13 13 12 11 11 11 10 10 9 8 7 7 6 6 6 6 6 5 5 4 5 6 5 5 4 4 5 6 6 6 6 8 9 9 9 10 10 11 12 13 13 13 13 13 13 14
10 11 13 14 16 16 17 17 16 15 15 15 14 13 11 10 9 8 7 6 6 5 6 6 6 5 5 5 5 6 5 4 5 6 7 6 7 8 9 10 9 10 10 10 11 12 13 12 12 13 14 15
11 12 14 16 17 18 19 19 20 21 20 19 18 16 15 14 13 11 10 9 8 6 6 7 7 6 5 4 5 5 5 5 6 6 7 7 7 7 8 7 7 9 10 9 9 9 10 10 11 13 14 15
15 15 16 19 20 22 22 22 24 25 24 23 21 20 19 18 17 15 14 13 11 10 9 9 8 8 7 5 5 5 5 5 5 5 6 6 6 5 6 7 7 10 9 7 8 8 9 11 10 10 11 13
21 21 22 23 24 25 25 25 26 27 27 26 25 24 23 22 20 19 18 17 16 14 13 12 11 11 10 8 7 7 6 6 6 6 6 6 6 5 6 6 7 9 6 5 9 8 7 6 5 6 7 8
24 26 27 28 27 27 27 25 25 27 27 27 27 27 26 25 23 22 21 21 20 19 17 16 15 14 13 11 10 10 9 9 9 9 8 7 7 7 7 6 6 8 8 6 6 6 5 5 4 5 4 5
21 21 22 23 23 23 24 22 22 23 23 24 26 27 27 27 25 24 24 23 22 22 21 20 18 17 16 15 14 13 13 13 13 12 10 9 9 8 8 7 7 8 9 8 6 5 6 5 4 4 5 9
23 22 20 19 18 17 19 20 20 20 19 19 21 23 25 27 26 25 25 24 24 23 23 22 21 20 19 18 17 17 16 15 15 15 14 13 11 10 9 8 8 8 8 8 8 8 8 8 7 7 8 9
28 27 26 25 23 20 19 20 18 17 17 17 19 20 22 24 26 26 26 25 25 24 24 23 22 22 21 20 20 19 18 17 17 17 16 15 13 12 11 10 8 9 9 8 7 7 7 11 12 12 11 7
Wind_Direction
165 163 164 166 160 158 157 160 160 162 165 162 166 163 161 169 174 172 165 169 169 166 170 167 140 101 96 95 78 84 87 92 98 101 107 108 110 98 91 108 91 106 142 160 174 174 177 177 170 168 151 134
170 169 171 169 166 170 171 173 171 171 171 169 175 178 177 176 182 178 166 166 168 167 166 169 155 104 90 89 82 84 88 92 96 98 104 105 104 95 95 103 91 117 154 170 178 181 183 181 176 173 158 138
176 177 178 174 173 176 177 180 180 177 174 174 180 185 189 178 182 187 175 161 164 166 169 175 161 122 92 83 84 86 90 91 94 99 106 101 94 93 99 92 88 129 165 175 180 186 186 184 179 170 154 146
179 180 180 178 179 180 183 186 185 185 182 181 182 191 198 188 185 193 194 178 168 165 165 178 176 152 103 84 88 89 89 91 96 101 101 96 98 98 70 38 47 130 173 181 186 187 188 186 177 164 149 153
180 182 184 185 187 191 196 195 195 200 200 195 190 197 208 210 207 205 215 213 202 183 166 170 179 173 124 98 100 99 96 94 97 97 100 100 99 70 38 26 33 89 193 193 194 195 197 186 170 177 172 160
183 182 186 187 188 193 199 198 200 206 213 215 225 241 237 230 227 226 229 227 226 221 212 190 183 187 161 141 150 150 132 121 118 107 108 94 43 34 29 23 30 30 221 212 209 205 205 188 171 193 184 161
184 183 186 186 187 191 194 194 198 205 223 235 246 252 239 229 229 232 234 236 238 238 245 241 215 208 197 183 188 192 173 156 151 131 70 12 10 13 13 13 19 14 218 219 221 210 204 195 195 193 178 156
185 185 188 190 191 192 191 194 201 209 221 231 237 236 224 223 228 234 243 252 252 246 240 235 235 237 222 204 203 211 216 207 202 246 332 350 359 358 356 359 3 359 254 216 215 200 192 195 199 192 182 174
189 189 191 192 194 196 195 198 203 208 214 220 227 227 224 230 234 236 243 249 248 238 230 231 247 257 237 217 214 221 229 237 246 280 313 331 345 350 349 349 350 352 281 223 210 200 194 189 190 188 190 189
195 192 192 193 195 198 199 201 201 204 208 215 224 228 233 239 238 235 234 238 240 241 244 248 257 261 244 232 229 229 235 247 263 287 305 317 331 341 342 347 347 343 282 225 211 213 209 195 187 190 196 197
195 191 193 196 198 201 204 204 205 206 210 220 225 228 235 237 231 230 230 231 237 247 256 259 259 258 249 242 239 238 245 256 270 291 303 308 319 329 333 339 343 347 312 235 223 226 220 208 200 197 201 201
195 195 198 201 202 205 208 209 210 214 222 230 229 231 239 239 235 232 232 236 244 257 267 270 267 263 258 252 247 245 250 260 273 291 299 303 312 320 323 326 329 333 317 262 237 233 227 220 215 211 211 210
199 200 200 201 202 205 209 210 215 221 228 234 234 242 250 249 249 248 251 257 259 267 275 277 276 269 267 263 256 253 253 259 271 288 293 296 302 306 313 314 311 311 303 281 247 243 240 232 229 223 220 216
202 202 200 201 203 206 208 211 217 220 224 229 235 246 253 255 258 264 271 271 268 275 283 285 284 278 273 269 263 257 256 259 266 281 285 287 294 299 307 299 299 305 296 291 275 256 250 241 239 235 229 224
204 203 204 207 207 208 210 212 215 214 219 224 231 245 256 262 263 268 275 276 276 279 290 294 290 283 278 270 264 259 256 260 264 269 270 272 279 288 295 291 301 308 295 295 292 277 267 255 248 242 239 234
206 206 207 208 208 209 210 209 208 208 212 216 225 240 250 262 264 271 275 276 280 282 292 296 289 287 280 262 262 260 255 260 265 266 267 271 279 289 297 301 307 311 303 293 291 289 282 271 263 254 249 245
208 209 208 208 208 208 206 203 202 201 204 211 224 235 244 265 270 276 280 279 284 287 294 298 294 294 283 260 259 260 259 264 269 267 271 283 292 301 306 308 308 312 310 295 293 295 289 281 273 263 257 251
209 208 205 205 204 200 197 195 194 191 194 200 210 220 227 259 279 288 299 302 302 301 302 302 300 299 292 278 267 264 266 267 265 263 273 288 297 303 305 305 301 304 304 294 293 294 290 287 275 268 264 255
204 203 199 196 192 188 184 181 176 171 172 170 175 182 223 292 307 309 312 311 313 316 316 318 316 314 312 303 289 269 263 257 254 260 270 282 292 298 299 298 297 298 295 288 289 286 284 284 274 274 271 262
194 189 186 182 173 169 161 154 147 138 137 125 114 92 42 350 335 324 329 335 342 348 345 343 336 330 327 325 319 281 269 266 260 267 277 284 292 297 298 299 298 296 293 289 287 282 279 277 274 275 271 266
183 176 171 163 152 148 139 130 118 107 105 95 85 74 63 49 38 28 24 23 19 18 14 10 351 336 331 331 327 291 281 272 263 275 284 288 294 297 297 298 300 297 294 291 290 286 281 279 274 271 266 264
165 155 145 135 125 120 114 107 99 95 91 84 77 69 67 63 54 48 42 36 33 28 16 9 357 342 334 332 325 304 292 278 280 286 286 287 291 297 297 293 297 300 300 297 295 291 284 279 274 270 266 263
138 130 122 115 108 102 97 95 93 92 88 81 78 75 74 75 70 62 55 50 46 39 25 11 358 351 343 338 332 319 313 304 302 299 294 293 292 297 300 296 296 298 301 300 295 292 289 282 273 270 269 268
121 115 110 104 100 94 88 90 90 87 86 83 81 80 78 77 74 68 64 61 56 52 44 31 13 4 354 344 339 331 329 325 313 307 303 301 296 297 300 302 300 302 307 301 293 289 286 283 275 275 277 271
109 109 109 104 98 92 86 87 87 83 82 81 79 79 77 75 72 69 68 63 59 58 58 50 37 27 17 2 355 347 341 331 320 316 311 306 306 304 303 303 298 309 315 303 295 292 288 289 279 276 282 275
101 99 105 106 101 98 92 87 85 81 78 78 77 76 75 73 71 69 67 63 60 59 60 59 52 44 36 28 25 18 4 351 344 337 326 321 322 313 304 299 294 309 318 301 304 309 301 299 281 262 273 275
104 105 109 107 103 100 93 87 85 82 79 77 76 74 73 72 70 70 68 66 63 61 61 61 59 55 46 42 43 37 26 16 9 1 352 345 341 327 310 301 300 310 314 302 309 306 289 302 306 273 264 266
99 105 106 104 101 97 92 87 83 80 76 74 72 70 70 70 69 69 69 67 66 64 63 62 63 61 56 52 52 47 40 32 25 19 10 3 360 350 330 314 311 310 305 300 306 302 295 306 300 278 281 307
95 96 97 97 94 90 86 79 72 69 64 63 64 64 65 66 67 67 67 66 65 64 62 61 61 61 59 57 55 52 48 42 36 31 24 19 14 7 350 324 314 309 305 301 289 279 290 299 275 270 328 332
95 94 91 88 80 75 74 68 61 60 58 58 60 61 62 64 65 65 64 63 62 61 59 58 57 57 56 54 53 50 48 46 39 34 32 31 25 15 3 340 320 316 316 310 296 277 265 268 274 292 320 322
89 87 83 80 74 70 72 70 66 63 63 63 62 63 61 60 61 61 61 59 58 58 57 55 54 53 52 50 49 46 44 43 38 33 32 32 33 26 16 7 348 332 332 325 313 312 290 275 275 279 286 286